Location: Newark
(45.4422°N, 16.2769°E)
Time: 06:02:58
(UTC+00:00)

Tiros 1 despin weight - Pass Details

Date: 19 December 2019
Orbit: 594 x 643 km, 48.2° (Epoch: 21 January)

Event Time Altitude Azimuth Distance (km) Brightness Sun altitude
Rises 05:37:59 0° 290° (WNW) 2,881 - -8.9°
Reaches altitude 10° 05:40:19 10° 287° (WNW) 1,966 - -8.5°
Exits shadow 05:40:25 11° 287° (WNW) 1,931 ? -8.5°
Maximum altitude 05:44:47 64° 206° (SSW) 668 ? -7.8°
Drops below altitude 10° 05:49:10 10° 125° (SE) 1,932 ? -7.1°
Sets 05:51:27 0° 123° (ESE) 2,827 ? -6.7°
